Weather History for Windom, MN

Change the Weather History Date:

Saturday, July 12, 2014

  Actual Average Record
Temperature  
Mean Temperature 72 °F -  
Max Temperature 78 °F 85 °F 98 °F (1980)
Min Temperature 66 °F 62 °F 45 °F (1959)
Cooling Degree Days 7    
Growing Degree Days 22 (Base 50)    
Moisture  
Dew Point 66 °F    
Average Humidity 79    
Maximum Humidity 94    
Minimum Humidity 57    
Precipitation  
Precipitation 0.00 in - - ()
Sea Level Pressure  
Sea Level Pressure 30.02 in    
Wind  
Wind Speed 5 mph (WNW)    
Max Wind Speed 17 mph    
Max Gust Speed 20 mph    
Visibility 8 miles    
Events Rain    
Averages and records for this station are not official NWS values.
T = Trace of Precipitation, MM = Missing Value Source: NWS Daily Summary

Daily Weather History Graph

Daily Weather History Graph

Search for Another Location

Airport:

Trip Planner

Search our weather history database for the weather conditions in past years. The results will help you decide how hot, cold, wet, or windy it might be!

Date:

Astronomy

Jul. 12, 2014 Rise Set
Actual Time 5:49 AM CDT 9:02 PM CDT
Civil Twilight 5:14 AM CDT 9:37 PM CDT
Nautical Twilight 4:28 AM CDT 10:22 PM CDT
Astronomical Twilight 3:32 AM CDT 11:18 PM CDT
Moon 9:00 PM CDT (7/12) 6:12 AM CDT (7/12)
Length of Visible Light 16h 23m
Length of Day
15h 13m
Full, 100% of the Moon is Illuminated
Jul 12
Full
Jul 18
Last Quarter
Jul 26
New
Aug 3
First Quarter
Aug 10
Full

Hourly Weather History & Observations

Time (CDT) Temp. Dew Point Humidity Pressure Visibility Wind Dir Wind Speed Gust Speed Precip Events Conditions
12:13 AM 71.6 °F 69.8 °F 94% 30.03 in 5.0 mi SSW 3.5 mph - N/A   Clear
12:34 AM 71.6 °F 69.8 °F 94% 30.03 in 4.0 mi SW 3.5 mph - N/A   Clear
12:53 AM 71.6 °F 69.8 °F 94% 30.02 in 4.0 mi Calm Calm - N/A   Clear
1:13 AM 71.6 °F 68.0 °F 88% 30.02 in 4.0 mi SSW 3.5 mph - N/A   Clear
1:34 AM 71.6 °F 68.0 °F 88% 30.01 in 4.0 mi Calm Calm - N/A   Clear
1:53 AM 71.6 °F 68.0 °F 88% 30.01 in 4.0 mi Calm Calm - N/A   Clear
2:13 AM 69.8 °F 66.2 °F 88% 30.01 in 2.5 mi Calm Calm - N/A   Clear
2:53 AM 69.8 °F 68.0 °F 94% 30.02 in 4.0 mi Calm Calm - N/A   Clear
3:13 AM 71.6 °F 68.0 °F 88% 30.03 in 4.0 mi SSW 4.6 mph - N/A   Clear
3:34 AM 71.6 °F 69.8 °F 94% 30.04 in 4.0 mi SSW 4.6 mph - N/A   Mostly Cloudy
3:53 AM 71.6 °F 69.8 °F 94% 30.05 in 3.0 mi SSW 5.8 mph - N/A   Mostly Cloudy
4:13 AM 71.6 °F 68.0 °F 88% 30.05 in 4.0 mi SSW 5.8 mph - N/A   Scattered Clouds
4:34 AM 71.6 °F 69.8 °F 94% 30.05 in 4.0 mi SSW 8.1 mph - N/A   Mostly Cloudy
4:53 AM 71.6 °F 68.0 °F 88% 30.04 in 4.0 mi SSW 9.2 mph - N/A   Mostly Cloudy
5:13 AM 71.6 °F 68.0 °F 88% 30.04 in 4.0 mi SSW 5.8 mph - N/A   Scattered Clouds
5:53 AM 71.6 °F 69.8 °F 94% 30.03 in 4.0 mi SSW 5.8 mph - N/A   Scattered Clouds
6:13 AM 71.6 °F 69.8 °F 94% 30.02 in 4.0 mi SSW 5.8 mph - N/A   Scattered Clouds
6:34 AM 71.6 °F 69.8 °F 94% 30.00 in 3.0 mi Calm Calm - N/A   Scattered Clouds
6:53 AM 71.6 °F 69.8 °F 94% 30.00 in 2.5 mi Calm Calm - N/A   Clear
7:13 AM 71.6 °F 69.8 °F 94% 30.01 in 1.5 mi NW 5.8 mph - N/A Rain Rain
7:34 AM 71.6 °F 69.8 °F 94% 30.02 in 2.0 mi SW 5.8 mph - N/A   Light Drizzle
7:53 AM 71.6 °F 69.8 °F 94% 30.01 in 2.5 mi South 3.5 mph - N/A   Light Drizzle
8:14 AM 71.6 °F 69.8 °F 94% 30.00 in 3.0 mi South 3.5 mph - N/A Rain Light Rain
8:53 AM 73.4 °F 69.8 °F 88% 30.01 in 5.0 mi SSW 4.6 mph - N/A   Clear
9:14 AM 73.4 °F 69.8 °F 88% 30.01 in 7.0 mi Calm Calm - N/A Rain Light Rain
9:34 AM 73.4 °F 68.0 °F 83% 30.01 in 10.0 mi NW 3.5 mph - N/A   Clear
9:53 AM 73.4 °F 69.8 °F 88% 30.01 in 7.0 mi WNW 4.6 mph - N/A   Clear
10:13 AM 75.2 °F 69.8 °F 83% 30.02 in 7.0 mi West 9.2 mph - N/A   Clear
10:34 AM 77.0 °F 69.8 °F 78% 30.02 in 10.0 mi West 9.2 mph - N/A   Clear
10:53 AM 77.0 °F 66.2 °F 69% 30.04 in 10.0 mi NW 12.7 mph - N/A   Clear
11:13 AM 73.4 °F 66.2 °F 78% 30.05 in 10.0 mi NNW 16.1 mph 19.6 mph N/A   Scattered Clouds
11:34 AM 75.2 °F 64.4 °F 69% 30.04 in 10.0 mi NW 17.3 mph - N/A   Scattered Clouds
11:53 AM 75.2 °F 64.4 °F 69% 30.04 in 10.0 mi NW 11.5 mph - N/A   Clear
12:13 PM 75.2 °F 64.4 °F 69% 30.05 in 10.0 mi NW 10.4 mph - N/A   Scattered Clouds
12:33 PM 77.0 °F 64.4 °F 65% 30.05 in 10.0 mi NNW 8.1 mph - N/A   Clear
12:54 PM 78.8 °F 64.4 °F 61% 30.04 in 10.0 mi WNW 6.9 mph - N/A   Clear
1:13 PM 78.8 °F 66.2 °F 65% 30.04 in 10.0 mi NW 6.9 mph - N/A   Clear
1:34 PM 78.8 °F 64.4 °F 61% 30.04 in 10.0 mi North 8.1 mph - N/A   Clear
1:53 PM 78.8 °F 64.4 °F 61% 30.04 in 10.0 mi North 5.8 mph - N/A   Clear
2:13 PM 78.8 °F 64.4 °F 61% 30.04 in 10.0 mi NNW 3.5 mph - N/A   Clear
2:34 PM 77.0 °F 64.4 °F 65% 30.04 in 10.0 mi North 9.2 mph - N/A   Mostly Cloudy
2:53 PM 78.8 °F 64.4 °F 61% 30.03 in 10.0 mi North 11.5 mph 18.4 mph N/A   Scattered Clouds
3:13 PM 77.0 °F 64.4 °F 65% 30.02 in 10.0 mi NE 5.8 mph - N/A   Clear
3:34 PM 77.0 °F 62.6 °F 61% 30.01 in 10.0 mi North 6.9 mph - N/A   Clear
3:53 PM 78.8 °F 62.6 °F 57% 30.01 in 10.0 mi North 9.2 mph - N/A   Clear
4:13 PM 77.0 °F 62.6 °F 61% 30.00 in 10.0 mi NNW 6.9 mph - N/A   Clear
4:53 PM 75.2 °F 60.8 °F 61% 29.99 in 10.0 mi North 3.5 mph - N/A   Clear
5:14 PM 75.2 °F 60.8 °F 61% 29.99 in 10.0 mi Calm Calm - N/A   Clear
5:33 PM 77.0 °F 62.6 °F 61% 30.00 in 10.0 mi Calm Calm - N/A   Clear
5:53 PM 77.0 °F 62.6 °F 61% 30.00 in 10.0 mi Calm Calm - N/A   Clear
6:14 PM 77.0 °F 62.6 °F 61% 30.00 in 10.0 mi NNW 6.9 mph - N/A   Clear
6:33 PM 77.0 °F 64.4 °F 65% 29.99 in 10.0 mi WNW 5.8 mph - N/A   Clear
6:53 PM 75.2 °F 64.4 °F 69% 29.99 in 10.0 mi WNW 8.1 mph - N/A   Clear
7:14 PM 75.2 °F 64.4 °F 69% 30.00 in 10.0 mi NW 9.2 mph - N/A   Clear
7:33 PM 75.2 °F 64.4 °F 69% 30.00 in 10.0 mi NW 6.9 mph - N/A   Clear
7:53 PM 75.2 °F 64.4 °F 69% 30.00 in 10.0 mi NW 8.1 mph - N/A   Clear
8:14 PM 73.4 °F 64.4 °F 73% 30.00 in 10.0 mi NW 6.9 mph - N/A   Clear
8:33 PM 71.6 °F 64.4 °F 78% 30.00 in 10.0 mi NW 5.8 mph - N/A   Clear
8:53 PM 69.8 °F 64.4 °F 83% 30.00 in 10.0 mi NNW 3.5 mph - N/A   Clear
9:14 PM 69.8 °F 64.4 °F 83% 30.00 in 10.0 mi Calm Calm - N/A   Clear
9:33 PM 69.8 °F 64.4 °F 83% 30.01 in 10.0 mi Calm Calm - N/A   Clear
9:53 PM 69.8 °F 64.4 °F 83% 30.01 in 10.0 mi Calm Calm - N/A   Clear
10:14 PM 69.8 °F 64.4 °F 83% 30.01 in 10.0 mi Calm Calm - N/A   Clear
10:33 PM 68.0 °F 64.4 °F 88% 30.01 in 10.0 mi Calm Calm - N/A   Clear
10:53 PM 68.0 °F 64.4 °F 88% 30.01 in 10.0 mi SW 3.5 mph - N/A   Clear
11:13 PM 66.2 °F 64.4 °F 94% 30.00 in 10.0 mi SSW 5.8 mph - N/A   Clear
11:33 PM 66.2 °F 64.4 °F 94% 30.00 in 10.0 mi SSW 5.8 mph - N/A   Clear
11:53 PM 66.2 °F 64.4 °F 94% 30.01 in 10.0 mi SW 4.6 mph - N/A   Clear